Vertical_Velocity
5 3 -40 4 3 -1 8 3 -4 -6 -2 3 -2 -4 -1 1 -8 7 -4 2 9 8 12 6 4 7 3 -1 0 1 -0 -2 1 10 5 1 1 -2 9 4 -1 1 1
1 -8 8 -2 2 -2 6 -2 -6 -6 -6 8 -1 -1 0 0 -1 3 5 -3 2 0 16 -2 -0 12 2 8 -2 1 4 0 -3 9 9 10 6 -2 -7 4 3 -1 -1
-3 -9 -4 -6 -16 9 3 1 -6 -12 -5 5 1 -4 -3 1 -2 -2 -4 3 -15 -0 -5 1 -1 4 3 1 7 4 2 2 -1 -15 9 16 1 2 3 -2 2 -1 -0
-3 1 3 7 6 -2 -4 -3 2 -6 -3 -2 5 -0 -4 -4 -2 3 -3 -2 -6 -19 -2 -1 -4 1 -2 -5 -3 5 3 1 10 -3 -18 4 10 5 1 -2 -1 3 -2
2 4 5 2 0 -3 -6 -5 -0 -0 -1 -3 5 1 1 -3 -6 -1 5 3 0 0 -0 -4 -3 -2 3 5 -3 3 2 -2 3 1 -32 1 11 5 -1 0 -1 4 3
1 4 -2 -1 2 -0 -5 -3 5 -0 -3 -1 2 3 4 -3 -2 -3 -4 -3 3 2 5 4 4 1 -2 -4 -2 0 2 -4 6 1 -6 3 2 11 1 1 -4 4 3
10 11 10 11 8 7 4 3 -3 -1 4 2 4 2 1 20 -3 -2 -3 -2 -1 -2 -2 -4 2 -2 -3 -3 6 2 -2 -1 1 1 -2 -1 12 11 1 8 2 4 6
-6 -5 -3 -3 -1 -3 -2 -2 -0 4 2 -0 2 -1 -2 11 -4 -1 -2 -1 2 -2 -2 -2 -2 -5 -7 -10 4 7 5 1 -4 -1 -21 -12 13 23 12 4 6 0 8
-4 -1 -2 -1 -1 -2 -1 -3 -3 -2 1 2 0 -1 -3 7 6 -4 -1 -4 -0 -1 -1 -7 -3 -1 -6 -2 1 3 -0 4 -3 1 -4 -16 14 23 4 -2 8 -4 -1
-2 -4 -1 -1 -2 -0 -1 0 -1 -2 -1 0 3 -0 4 2 6 6 2 -3 -0 2 -0 3 -0 -1 2 -2 -2 -2 -1 -14 7 6 -11 0 12 3 6 7 2 -3 -2
2 -1 -4 -6 -6 -5 -2 -2 -2 -1 -1 -1 -3 3 3 1 2 4 3 -3 -0 -0 -1 7 9 -1 -2 -1 -1 -3 -4 -8 -5 19 -31 -1 -1 7 4 3 -1 2 3
-1 -2 -2 1 1 -1 -4 -3 -2 -6 -7 -4 -3 -2 -1 1 1 5 4 2 3 -4 -1 4 5 5 3 -3 -4 1 -2 -8 -3 -12 -18 1 5 5 3 3 -1 -1 4
0 0 -1 -5 -3 -1 -1 -2 -4 -4 -3 -1 -3 -3 0 3 -1 -1 2 2 3 -3 -3 1 3 5 1 2 5 3 0 -0 -4 -4 -4 -3 3 6 2 -1 -1 -2 1
-4 -2 2 1 -3 -4 -4 -4 -3 -0 -0 -1 -3 -3 -1 -1 -0 3 1 0 2 1 0 -2 -2 -0 3 1 1 6 -0 3 4 -0 1 1 1 -2 3 -1 1 3 2
-6 -1 2 1 -0 2 -1 0 -1 2 -1 -2 -1 -1 -4 1 7 -2 -1 1 1 2 -0 -1 1 -1 -1 3 2 1 6 6 0 3 3 -3 -3 0 1 1 1 -1 -2
2 -3 -1 -3 2 -2 1 -0 5 0 2 0 1 -3 1 -3 -2 0 1 0 1 -1 -5 -2 -1 1 1 1 -0 1 0 -1 3 3 2 1 -2 -4 4 1 3 1 -1
1 3 0 1 -1 -6 2 -7 -6 10 -2 4 3 0 -2 -3 -0 -3 -2 0 -3 -3 -4 0 -4 -1 2 2 -0 -0 0 2 2 -1 6 1 -3 1 -2 2 -3 0 3
-2 1 0 -0 2 -1 -1 -4 -3 -1 -6 -2 7 1 5 4 2 2 0 -6 -3 0 2 1 1 0 1 0 0 1 2 3 1 1 -2 2 -1 1 -0 -3 1 1 2
-3 -1 -2 0 -0 -1 0 1 -4 -3 -5 -7 -7 1 2 2 2 4 3 -1 -2 -1 -0 1 2 1 2 -0 -2 -1 -0 0 2 3 -1 -1 2 0 1 -1 2 -1 -0
-2 -4 2 -3 -0 1 1 -5 -2 -2 -7 -5 -1 -1 -3 -5 -0 3 4 3 3 -2 0 -1 2 1 0 -0 -0 1 -1 -1 -1 2 2 0 -1 -3 -1 1 -1 -2 1
6 2 -2 5 0 -0 0 -3 -2 -3 -4 -1 1 0 -0 -6 -8 -2 0 3 6 8 0 -1 0 -2 -1 1 1 -2 -1 -1 5 -1 0 -0 1 -2 1 2 3 -2 2
-3 3 2 -2 0 1 -3 -1 -1 0 -6 -2 -3 -4 -1 -1 -1 -2 2 2 1 7 5 1 -1 -1 0 1 2 -4 7 -4 1 -1 1 2 1 -1 -1 -3 5 4 2
-2 0 -1 1 -0 -2 1 2 -1 -5 -2 -2 -2 -7 -7 -2 -2 -2 1 5 1 -1 6 -1 -2 -1 1 0 2 -2 -3 2 5 7 11 -1 -1 1 3 -1 -1 3 -0
-1 -2 -2 -4 -4 -2 -5 0 -2 -2 -0 -2 -3 -1 -1 -1 -0 1 -2 1 1 -1 16 0 -1 3 3 0 1 1 0 3 2 2 0 1 -1 -0 -2 -4 2 2 0
-2 -3 -7 -4 -3 4 1 -1 -3 3 -1 -0 -3 -6 -1 -3 -2 1 1 -1 -1 2 2 1 3 0 0 1 1 -0 1 1 -2 0 -1 -1 -1 0 2 3 2 1 0
-3 -4 -3 1 4 0 -3 2 3 -3 -3 -3 -4 -2 -3 -2 -1 1 1 1 3 4 2 0 1 2 3 2 0 0 1 1 -1 0 1 1 -2 0 4 2 2 2 2
Height
3211 3210 3216 3224 3225 3225 3223 3221 3220 3218 3215 3213 3213 3212 3210 3209 3206 3200 3189 3178 3188 3199 3201 3201 3201 3200 3200 3199 3198 3199 3198 3198 3199 3201 3199 3198 3197 3195 3195 3194 3193 3192 3190
3210 3209 3210 3217 3219 3221 3220 3218 3216 3215 3213 3212 3210 3210 3208 3205 3203 3196 3191 3186 3188 3195 3197 3197 3195 3194 3195 3195 3194 3194 3193 3194 3195 3195 3196 3194 3193 3193 3193 3192 3191 3190 3188
3215 3214 3215 3217 3217 3217 3216 3214 3212 3211 3210 3209 3209 3207 3205 3203 3201 3197 3192 3191 3193 3194 3194 3194 3193 3192 3191 3190 3190 3189 3189 3188 3188 3187 3188 3190 3188 3189 3189 3189 3188 3187 3186
3213 3214 3214 3214 3214 3213 3212 3211 3208 3207 3206 3206 3205 3204 3202 3200 3199 3197 3194 3192 3192 3194 3192 3191 3190 3188 3185 3186 3185 3185 3184 3183 3182 3182 3184 3183 3186 3184 3184 3185 3185 3184 3184
3209 3209 3210 3209 3208 3207 3207 3206 3205 3203 3202 3202 3201 3200 3198 3197 3196 3194 3192 3191 3190 3190 3188 3185 3184 3183 3180 3180 3181 3180 3179 3178 3178 3177 3180 3179 3180 3180 3181 3181 3181 3181 3181
3202 3202 3202 3201 3201 3202 3201 3200 3200 3197 3196 3196 3197 3196 3194 3193 3192 3191 3190 3188 3187 3185 3184 3182 3180 3178 3176 3175 3174 3174 3173 3173 3173 3173 3175 3175 3174 3175 3176 3177 3177 3177 3177
3200 3200 3199 3198 3197 3195 3194 3192 3191 3191 3191 3190 3191 3189 3188 3188 3186 3185 3185 3185 3183 3181 3179 3177 3175 3172 3168 3165 3165 3168 3167 3167 3167 3167 3166 3165 3167 3170 3171 3173 3173 3173 3173
3194 3193 3192 3190 3189 3188 3187 3186 3186 3185 3184 3184 3183 3182 3182 3181 3180 3179 3179 3179 3178 3176 3174 3172 3170 3166 3162 3158 3159 3163 3164 3163 3162 3160 3157 3159 3159 3164 3166 3168 3169 3168 3169
3189 3187 3186 3185 3184 3183 3182 3180 3179 3178 3177 3176 3175 3175 3176 3176 3174 3172 3172 3172 3172 3170 3168 3166 3165 3163 3160 3158 3159 3159 3159 3158 3156 3155 3151 3153 3153 3157 3158 3160 3162 3163 3164
3183 3182 3181 3180 3178 3176 3175 3173 3172 3171 3170 3169 3169 3168 3168 3169 3167 3166 3164 3164 3165 3163 3161 3160 3158 3157 3156 3155 3155 3153 3153 3149 3147 3148 3150 3149 3150 3150 3152 3154 3154 3155 3157
3176 3175 3174 3173 3171 3169 3168 3166 3164 3162 3161 3160 3160 3159 3159 3159 3159 3157 3155 3154 3154 3153 3153 3153 3152 3149 3149 3149 3148 3147 3147 3146 3145 3144 3142 3143 3145 3146 3146 3147 3148 3148 3149
3171 3169 3167 3165 3162 3160 3158 3156 3153 3152 3150 3149 3147 3147 3147 3147 3146 3147 3145 3142 3141 3139 3142 3143 3143 3142 3140 3140 3140 3141 3140 3141 3140 3140 3140 3139 3139 3139 3139 3140 3140 3140 3142
3162 3160 3157 3154 3151 3147 3144 3142 3140 3139 3136 3134 3132 3131 3131 3132 3131 3131 3131 3129 3128 3125 3126 3129 3129 3129 3130 3131 3131 3131 3131 3132 3133 3133 3134 3133 3133 3132 3131 3131 3132 3132 3133
3152 3149 3145 3141 3139 3136 3133 3130 3127 3126 3123 3120 3119 3117 3115 3114 3115 3115 3114 3113 3112 3110 3110 3110 3111 3113 3116 3118 3120 3121 3121 3122 3122 3123 3124 3123 3124 3124 3123 3122 3122 3123 3124
3142 3139 3136 3131 3128 3125 3123 3120 3116 3114 3110 3106 3105 3103 3101 3099 3100 3099 3098 3097 3097 3096 3094 3094 3095 3096 3098 3102 3105 3108 3110 3111 3112 3114 3114 3113 3114 3115 3115 3114 3114 3113 3113
3132 3129 3125 3121 3118 3114 3110 3107 3105 3100 3098 3094 3091 3088 3086 3083 3084 3083 3082 3081 3080 3078 3076 3078 3080 3081 3083 3086 3088 3092 3094 3097 3099 3102 3103 3102 3102 3104 3105 3105 3105 3104 3104
3120 3117 3113 3109 3105 3101 3097 3093 3089 3090 3085 3082 3079 3076 3072 3069 3068 3067 3066 3064 3061 3060 3060 3062 3063 3066 3068 3070 3072 3075 3078 3082 3085 3087 3090 3091 3092 3093 3094 3095 3096 3096 3095
3110 3105 3100 3097 3093 3089 3085 3081 3076 3071 3067 3068 3068 3063 3061 3059 3056 3053 3050 3046 3046 3045 3046 3046 3047 3049 3051 3054 3057 3060 3063 3066 3069 3073 3076 3078 3080 3082 3082 3084 3086 3086 3085
3098 3094 3089 3085 3081 3077 3072 3069 3065 3059 3054 3049 3046 3047 3045 3040 3038 3036 3035 3032 3031 3031 3032 3032 3032 3034 3036 3038 3042 3045 3048 3051 3054 3058 3060 3064 3067 3068 3070 3072 3074 3075 3075
3086 3082 3078 3074 3070 3066 3061 3056 3051 3046 3040 3033 3027 3022 3018 3016 3013 3013 3014 3014 3015 3016 3018 3019 3020 3020 3022 3026 3029 3032 3034 3036 3040 3043 3047 3051 3054 3057 3058 3060 3062 3064 3065
3077 3073 3069 3065 3059 3054 3049 3043 3037 3030 3023 3017 3012 3008 3004 2997 2995 2995 2993 2993 2996 3000 3003 3005 3007 3009 3011 3014 3018 3021 3024 3026 3030 3032 3035 3038 3040 3042 3046 3048 3049 3052 3054
3067 3063 3059 3054 3049 3043 3037 3030 3022 3015 3010 3003 2998 2992 2986 2980 2975 2974 2974 2975 2977 2981 2986 2990 2993 2997 3001 3004 3008 3011 3013 3017 3019 3022 3023 3024 3026 3029 3032 3034 3037 3040 3042
3058 3054 3049 3043 3037 3030 3024 3018 3013 3007 3001 2994 2986 2976 2968 2960 2954 2952 2953 2954 2959 2964 2969 2974 2981 2986 2990 2993 2998 3001 3004 3008 3011 3011 3012 3014 3016 3018 3021 3023 3027 3029 3031
3049 3044 3037 3032 3026 3019 3015 3010 3006 3000 2994 2986 2976 2966 2956 2947 2941 2937 2936 2937 2941 2950 2956 2963 2970 2975 2980 2984 2987 2991 2995 2998 2999 3001 3002 3004 3006 3008 3010 3012 3015 3019 3021
3039 3032 3026 3019 3014 3010 3007 3003 2999 2993 2986 2978 2969 2959 2949 2941 2934 2929 2928 2929 2935 2940 2947 2953 2960 2968 2973 2977 2980 2982 2985 2987 2989 2991 2993 2994 2996 2998 3000 3003 3005 3009 3011
3029 3021 3014 3011 3008 3006 3003 2998 2993 2988 2980 2973 2963 2953 2944 2938 2931 2926 2925 2928 2931 2936 2942 2949 2956 2963 2967 2971 2974 2976 2977 2977 2979 2981 2983 2984 2987 2989 2991 2993 2996 2999 3001